This demonstration page uses our WeatherBlox Daily Observations layout. Learn more.

Hourly Observations for April 13, 2017

Temp ( °F °C ) Dew Point ( °F °C ) Humidity (%) Winds ( mph kmh ) Pressure ( in mb ) Visibility ( mi km ) Precip ( " mm )
12:15 am 00:15 Clear 54 12.2 46 8 76 76 N 7 11 30.12 1020 10 16.0934 0 0
12:35 am 00:35 Clear 51 10.5 45 7.1 80 80 N 8 13 30.12 1020 10 16.0934 0 0
12:55 am 00:55 Clear 51 10.6 45 7.2 80 80 N 8 13 30.12 1020 10 16.0934 0 0
1:15 am 01:15 Clear 49 9.7 44 6.7 82 82 NNE 7 11 30.15 1021 10 16.0934 0 0
1:35 am 01:35 Clear 49 9.3 44 6.7 84 84 NNE 5 7 30.15 1021 10 16.0934 0 0
1:55 am 01:55 Clear 48 9.1 44 6.6 85 85 Calm 30.15 1021 10 16.0934 0 0
2:15 am 02:15 Clear 48 9 44 6.7 86 86 N 5 7 30.15 1021 10 16.0934 0 0
2:35 am 02:35 Clear 47 8.5 44 6.6 88 88 N 5 7 30.15 1021 10 16.0934 0 0
2:55 am 02:55 Clear 48 9 45 7.3 89 89 N 7 11 30.15 1021 10 16.0934 0 0
3:15 am 03:15 Clear 48 9.1 46 7.6 90 90 N 9 15 30.15 1021 7 11.26538 0 0
3:35 am 03:35 Clear 48 9 46 7.6 91 91 N 9 15 30.15 1021 7 11.26538 0 0
3:55 am 03:55 Clear 48 8.9 46 7.6 92 92 N 9 15 30.15 1021 7 11.26538 0 0
4:15 am 04:15 Clear with Mist and Fog 47 8.4 45 7.2 92 92 N 8 13 30.15 1021 5 8.0467 0 0
4:35 am 04:35 Clear with Mist and Fog 46 8 45 7.1 94 94 N 8 13 30.15 1021 5 8.0467 0 0
4:55 am 04:55 Clear with Mist and Fog 46 7.9 45 7 94 94 N 6 9 30.15 1021 5 8.0467 0 0
5:15 am 05:15 Clear with Mist and Fog 46 7.7 44 6.9 95 95 N 3 6 30.15 1021 4 6.43736 0 0
5:35 am 05:35 Clear with Mist and Fog 45 7 43 6.2 95 95 N 6 9 30.18 1022 3 4.82802 0 0
5:55 am 05:55 Clear with Mist and Fog 44 6.6 43 6 96 96 N 5 7 30.18 1022 3 4.82802 0 0
6:15 am 06:15 Partly Cloudy with Mist and Fog 45 7 44 6.4 96 96 Calm 30.18 1022 4 6.43736 0 0
6:35 am 06:35 Cloudy with Mist and Fog 45 7 43 6.2 95 95 Calm 30.18 1022 3 4.82802 0 0
6:55 am 06:55 Cloudy with Mist and Fog 45 7.1 44 6.5 96 96 N 3 6 30.15 1021 3 4.82802 0 0
7:15 am 07:15 Cloudy with Mist and Fog 46 7.7 45 7.1 96 96 NNE 10 17 30.15 1021 4 6.43736 0 0
7:35 am 07:35 Cloudy with Mist and Fog 47 8.2 46 7.5 95 95 NNE 8 13 30.15 1021 3 4.82802 0 0
7:55 am 07:55 Cloudy with Mist and Fog 47 8.6 46 7.5 93 93 N 8 13 30.15 1021 4 6.43736 0 0
8:15 am 08:15 Cloudy with Mist and Fog 48 8.8 46 7.5 92 92 NNE 3 6 30.18 1022 4 6.43736 0 0
8:35 am 08:35 Cloudy with Mist and Fog 48 9 46 7.6 91 91 NNE 6 9 30.18 1022 4 6.43736 0 0
8:55 am 08:55 Cloudy with Mist and Fog 49 9.4 46 8 91 91 NE 10 17 30.15 1021 4 6.43736 0 0
9:15 am 09:15 Cloudy with Mist and Fog 50 9.8 47 8.2 90 90 NE 12 19 30.15 1021 4 6.43736 0.01 0.254
9:35 am 09:35 Cloudy with Mist and Fog 51 10.6 48 8.7 88 88 NE 14 22 30.12 1020 5 8.0467 0.01 0.254
9:56 am 09:56 undefined 52 11 48 9 88 88 undefined N/A N/A N/A 0 0
10:15 am 10:15 Hazy 55 12.6 49 9.6 82 82 NE 8 13 30.12 1020 5 8.0467 0.01 0.254
10:35 am 10:35 Hazy 56 13.6 50 9.9 79 79 NE 8 13 30.12 1020 5 8.0467 0.01 0.254
10:55 am 10:55 Sunny 58 14.4 51 10.3 77 77 E 9 15 30.09 1019 7 11.26538 0.01 0.254
11:15 am 11:15 Sunny 59 15 51 10.3 74 74 E 8 13 30.09 1019 7 11.26538 0 0
11:35 am 11:35 Sunny 61 16 52 11.1 73 73 ENE 8 13 30.09 1019 7 11.26538 0 0
11:55 am 11:55 Sunny 62 16.8 52 11.2 70 70 E 7 11 30.09 1019 7 11.26538 0 0
12:15 pm 12:15 Sunny 64 18 52 11.1 64 64 ESE 9 15 30.06 1018 7 11.26538 0 0
12:35 pm 12:35 Sunny 65 18.6 52 11.1 62 62 ESE 6 9 30.06 1018 10 16.0934 0 0
12:55 pm 12:55 Sunny 67 19.2 52 11.2 60 60 ESE 7 11 30.06 1018 10 16.0934 0 0
1:15 pm 13:15 Sunny 69 20.3 53 11.4 57 57 SE 8 13 30.06 1018 10 16.0934 0 0
1:35 pm 13:35 Sunny 69 20.3 52 11.1 56 56 ESE 8 13 30.06 1018 10 16.0934 0 0
1:55 pm 13:55 Sunny 69 20.8 52 11 54 54 ESE 5 7 30 1016 10 16.0934 0 0
2:15 pm 14:15 Sunny 70 21.3 52 11.1 52 52 Calm 30 1016 10 16.0934 0 0
2:35 pm 14:35 Sunny 71 21.6 50 10.2 48 48 Calm 30 1016 10 16.0934 0 0
2:55 pm 14:55 Sunny 72 22.3 48 9 43 43 SSE 3 6 29.97 1015 10 16.0934 0 0
3:15 pm 15:15 Sunny 73 23 49 9.2 42 42 S 7 11 29.97 1015 10 16.0934 0 0
3:35 pm 15:35 Sunny 74 23.1 48 9 41 41 SSW 6 9 29.97 1015 10 16.0934 0 0
3:55 pm 15:55 Partly Cloudy 73 23 49 9.3 42 42 SSE 8 13 29.97 1015 10 16.0934 0 0
4:15 pm 16:15 Sunny 74 23.3 49 9.4 41 41 S 13 20 29.97 1015 10 16.0934 0 0
4:35 pm 16:35 Sunny 74 23.1 48 9.1 41 41 S 13 20 29.97 1015 10 16.0934 0 0
4:55 pm 16:55 Sunny 73 22.9 49 9.5 43 43 SSW 10 17 29.94 1014 10 16.0934 0 0
5:15 pm 17:15 Sunny 72 22.4 49 9.7 45 45 SSE 8 13 29.94 1014 10 16.0934 0 0
5:35 pm 17:35 Sunny 73 22.5 51 10.3 46 46 SE 13 20 29.94 1014 10 16.0934 0 0
5:55 pm 17:55 Mostly Cloudy 72 22.2 50 10.2 47 47 SE 10 17 29.94 1014 10 16.0934 0 0
6:15 pm 18:15 Cloudy 72 22 51 10.5 48 48 SSE 13 20 29.94 1014 10 16.0934 0 0
6:35 pm 18:35 Cloudy 71 21.5 51 10.3 49 49 SSE 16 26 29.94 1014 10 16.0934 0 0
6:55 pm 18:55 Cloudy 65 18.1 51 10.8 63 63 SSW 23 37 30 1016 7 11.26538 0 0
7:15 pm 19:15 Mostly Cloudy 62 16.8 51 10.4 66 66 SSW 15 24 29.97 1015 10 16.0934 0 0
7:35 pm 19:35 Mostly Cloudy 61 16 51 10.5 70 70 SSW 8 13 30 1016 10 16.0934 0 0
7:55 pm 19:55 Partly Cloudy 61 16 51 10.3 69 69 S 8 13 30 1016 10 16.0934 0 0
8:15 pm 20:15 Partly Cloudy 62 16.7 48 8.8 60 60 S 10 17 29.97 1015 10 16.0934 0 0
8:35 pm 20:35 Mostly Cloudy 62 16.4 50 10.1 67 67 S 12 19 29.97 1015 10 16.0934 0 0
8:55 pm 20:55 Partly Cloudy 61 16.2 51 10.6 70 70 S 6 9 30 1016 10 16.0934 0 0
9:15 pm 21:15 Mostly Cloudy 61 16.1 51 10.5 70 70 S 5 7 29.94 1014 10 16.0934 0 0
9:35 pm 21:35 Partly Cloudy 60 15.8 50 10.1 69 69 SSE 3 6 29.97 1015 10 16.0934 0 0
9:55 pm 21:55 Mostly Cloudy 59 15.2 50 10.2 72 72 SSE 13 20 30 1016 10 16.0934 0 0
10:15 pm 22:15 Cloudy 61 16.2 52 11.3 73 73 SSE 13 20 30 1016 10 16.0934 0 0
10:35 pm 22:35 Cloudy 60 15.5 54 12 80 80 S 10 17 30 1016 10 16.0934 0 0
10:55 pm 22:55 Partly Cloudy 59 15.1 53 11.5 79 79 S 8 13 29.97 1015 10 16.0934 0 0
11:15 pm 23:15 Mostly Cloudy 58 14.7 52 11.3 80 80 S 8 13 29.97 1015 10 16.0934 0 0
11:35 pm 23:35 Cloudy 59 14.8 51 10.5 76 76 SSE 10 17 29.97 1015 10 16.0934 0 0
11:55 pm 23:55 Cloudy 58 14.4 51 10.5 78 78 SSE 9 15 29.97 1015 10 16.0934 0 0

Powered by AerisWeather